Patterson, LA

4:01 AM CDT on October 17, 2019 (GMT -0500)
Williams Memorial

Weather History for KPTN - September, 2019

Change the Weather History Date:

Monday, September 23, 2019

  Actual Average Record
Temperature  
Mean Temperature 80 °F -  
Max Temperature 89 °F 82 °F 98 °F (1998)
Min Temperature 71 °F 66 °F 53 °F (1999)
Cooling Degree Days 15    
Growing Degree Days 30 (Base 50)    
Moisture  
Dew Point 71 °F    
Average Humidity 81    
Maximum Humidity 100    
Minimum Humidity 52    
Precipitation  
Precipitation 0.00 in - - ()
Sea Level Pressure  
Sea Level Pressure 30.05 in    
Wind  
Wind Speed 3 mph (ENE)    
Max Wind Speed 10 mph    
Max Gust Speed -    
Visibility 9 miles    
Events      
Averages and records for this station are not official NWS values.
T = Trace of Precipitation, MM = Missing Value Source: NWS Daily Summary

Daily Weather History Graph

Daily Weather History Graph

Search for Another Location

Airport or City:

Astronomy

Sep. 23, 2019 Rise Set
Actual Time 6:54 AM CDT 7:00 PM CDT
Civil Twilight 6:30 AM CDT 7:24 PM CDT
Nautical Twilight 6:02 AM CDT 7:52 PM CDT
Astronomical Twilight 5:34 AM CDT 8:20 PM CDT
Moon 1:05 AM CDT (9/23) 3:27 PM CDT (9/23)
Length of Visible Light 12h 54m
Length of Day
12h 06m
Waning Crescent, 33% of the Moon is Illuminated
Sep 23
Waning Crescent
Sep 28
New
Oct 5
First Quarter
Oct 13
Full
Oct 21
Last Quarter

Hourly Weather History & Observations

Time (CDT) Temp. Heat Index Dew Point Humidity Pressure Visibility Wind Dir Wind Speed Gust Speed Precip Events Conditions
12:56 AM 73.9 °F - 73.0 °F 97% 30.08 in 10.0 mi East 3.5 mph - N/A   Clear
1:56 AM 73.0 °F - 71.1 °F 93% 30.07 in 10.0 mi East 3.5 mph - N/A   Clear
2:56 AM 72.0 °F - 71.1 °F 97% 30.06 in 10.0 mi East 3.5 mph - N/A   Clear
3:56 AM 72.0 °F - 72.0 °F 100% 30.05 in 10.0 mi East 3.5 mph - N/A   Clear
4:56 AM 71.1 °F - 71.1 °F 100% 30.05 in 10.0 mi Calm Calm - N/A   Clear
5:13 AM 71.6 °F - 71.6 °F 100% 30.04 in 1.5 mi Calm Calm - N/A   Clear
5:16 AM 71.6 °F - 71.6 °F 100% 30.05 in 0.8 mi Calm Calm - N/A   Mist
5:25 AM 71.6 °F - 71.6 °F 100% 30.05 in 1.8 mi Calm Calm - N/A   Partly Cloudy
5:37 AM 71.6 °F - 71.6 °F 100% 30.05 in 8.0 mi Calm Calm - N/A   Partly Cloudy
5:56 AM 71.1 °F - 71.1 °F 100% 30.05 in 3.0 mi East 3.5 mph - N/A   Partly Cloudy
6:56 AM 71.1 °F - - N/A% 30.07 in 10.0 mi Calm Calm - N/A   Clear
7:56 AM 73.9 °F - - N/A% 30.08 in 9.0 mi ENE 3.5 mph - N/A   Clear
8:56 AM 79.0 °F - 75.0 °F 88% 30.10 in 10.0 mi East 3.5 mph - N/A   Clear
9:56 AM 82.9 °F 87.0 °F 70.0 °F 65% 30.11 in 10.0 mi East 8.1 mph - N/A   Clear
10:56 AM 86.0 °F 89.4 °F 68.0 °F 55% 30.11 in 10.0 mi ENE 10.4 mph - N/A   Clear
11:56 AM 86.0 °F 89.4 °F 68.0 °F 55% 30.10 in 10.0 mi East 8.1 mph - N/A   Clear
12:56 PM 87.1 °F 92.0 °F 70.0 °F 57% 30.08 in 10.0 mi NE 5.8 mph - N/A   Scattered Clouds
1:56 PM 88.0 °F 92.9 °F 70.0 °F 55% 30.06 in 10.0 mi ENE 9.2 mph - N/A   Clear
2:56 PM 89.1 °F 95.0 °F 71.1 °F 55% 30.04 in 10.0 mi ENE 8.1 mph - N/A   Partly Cloudy
3:56 PM 89.1 °F 93.7 °F 69.1 °F 52% 30.02 in 10.0 mi ENE 9.2 mph - N/A   Scattered Clouds
4:56 PM 89.1 °F 94.1 °F 70.0 °F 53% 30.01 in 10.0 mi ENE 8.1 mph - N/A   Mostly Cloudy
5:56 PM 86.0 °F 90.1 °F 69.1 °F 57% 30.01 in 10.0 mi East 6.9 mph - N/A   Partly Cloudy
6:56 PM 82.0 °F 85.9 °F 70.0 °F 67% 30.01 in 10.0 mi East 4.6 mph - N/A   Clear
7:56 PM 75.9 °F - 72.0 °F 87% 30.02 in 10.0 mi Calm Calm - N/A   Clear
8:56 PM 75.0 °F - 72.0 °F 90% 30.02 in 10.0 mi Calm Calm - N/A   Clear
9:56 PM 73.9 °F - 71.1 °F 91% 30.03 in 10.0 mi Calm Calm - N/A   Clear
10:56 PM 73.9 °F - 71.1 °F 91% 30.02 in 10.0 mi Calm Calm - N/A   Clear
11:56 PM 72.0 °F - 72.0 °F 100% 30.01 in 10.0 mi Calm Calm - N/A   Clear